Regional Weather Roundup
Issued by NWS Newport/Morehead, NC

Current Version | Previous Version | Graphics & Text | Print | Product List | Glossary Off
Versions: 1 2 3 4 5 6 7 8 9 10 11 12 13 14 15 16 17 18 19 20 21 22 23 24 25 26 27 28 29 30 31 32 33 34 35 36 37 38 39 40 41 42 43 44 45 46 47 48 49 50

000
ASUS42 KMHX 301910
RWRMHX
WEATHER ROUNDUP FOR EASTERN NORTH CAROLINA
NATIONAL WEATHER SERVICE NEWPORT/MOREHEAD CITY NC
200 PM EST FRI JAN 30 2015

NOTE: "FAIR" INDICATES FEW OR NO CLOUDS BELOW 12,000 FEET
WITH NO SIGNIFICANT WEATHER AND/OR OBSTRUCTIONS TO VISIBILITY

NCZ015>017-031-032-045>047-102-103-302000-
NORTH COAST

CITY           SKY/WX    TMP DP  RH WIND       PRES   REMARKS
EDENTON        CLOUDY    44  32  62 N12       30.02S
ELIZABETH CITY CLOUDY    44  27  51 NW16G23   30.00F
KITTY HAWK     CLOUDY    42  26  53 NW9G16    29.97S
MANTEO         CLOUDY    43  28  56 N10G17    30.00S

$$

NCZ045>047-081-094-103-104-302000-
CENTRAL COAST

CITY           SKY/WX    TMP DP  RH WIND       PRES   REMARKS
FRISCO         CLOUDY    43  32  65 N9        29.99S
SWANQUARTER    NOT AVBL

$$

NCZ095-097-098-100-101-302000-
SOUTHERN COAST

CITY           SKY/WX    TMP DP  RH WIND       PRES   REMARKS
BEAUFORT       CLOUDY    49  30  48 NW22G28   30.02R
CEDAR ISLAND   NOT AVBL
JACKSONVILLE   PTSUNNY   50  24  36 N23G30    30.04S
PINEY ISLAND     N/A    N/A N/A N/A MISG      30.01R
WILMINGTON     MOSUNNY   52  27  38 NW16G28   30.05F


$$

NCZ011>013-027>030-043-044-078>080-089-090>093-098-302000-
COASTAL PLAIN

CITY           SKY/WX    TMP DP  RH WIND       PRES   REMARKS
AHOSKIE        CLOUDY    45  20  38 W6        30.03S
CLINTON        MOSUNNY   48  26  41 W14G22    30.09S
ELIZABETHTOWN  MOSUNNY   50  21  32 NW14G28   30.09S
GOLDSBORO      PTSUNNY   48  25  40 NW16G26   30.06S
GREENVILLE     MOSUNNY   46  19  34 NW15G24   30.06S
HAVELOCK       CLOUDY    49  24  37 NW17      30.03S
KENANSVILLE    PTSUNNY   47  20  35 NW14G21   30.08S
KINSTON        MOSUNNY   48  21  34 NW9G24    30.07R
NEW BERN       CLOUDY    49  24  37 NW13G28   30.05R
RICHLANDS      PTSUNNY   48  21  34 NW12G20   30.06S
ROCKY MOUNT    MOSUNNY   49  18  29 NW20G29   30.06S
WASHINGTON     CLOUDY    47  22  38 NW16G24   30.03S
WHITEVILLE     MOSUNNY   52  24  33 N8        30.08S

$$

AMZ130-135-150-152-154-156-158-170-250-252-270-ANZ085-086-088-633-658-670-302000-
MARINE OBSERVATIONS

STATION/POSITION TIME  TEMP    WIND        PRES    WAVE   SWELL
                       AIR SEA DIR/SP/G            HT/PER HT/PER
                 (UTC) (F)     (DEG/KT/KT) (MB)    (FT/S) (FT/S)
CHESAPEAKE LIGHT 1800   42     340/ 26/ 28 1015.2
64 E VA BEACH    1900   42 49  330/ 25/ 33 1012.9    7/ 6   2/10
DUCK             1900   42 44  330/ 17/ 19 1014.3
2 E DUCK         1900      43                N/A     3/ 4
10 NE DUCK       1900      45                N/A     4/ 5
OREGON INLET     1900   42 42  330/ 12/ 16 1015.3
13E OREGON INLT  1900      43                N/A     6/ 6   2/11
HATTERAS CG      1900   43 46  350/ 21/ 24 1015.8
DIAMOND BUOY     1900   45 68  340/ 27/ 33 1014.3    5/ 6   2/10
17 S OCRACOKE    NOT AVBL
CAPE LOOKOUT     1800   47     350/ 17/ 22 1015.8
BEAUFORT LAB     1900   48 47  330/  9/ 17 1015.3
27 SE WRIGHTSVLE NOT AVBL
5 SE WRIGHTSVLE  1800   50 52  330/ 19/ 21 1017.1
225 S CAPE HAT   1753   63 72  300/ 25/ 29 1012.0   12/ 8
41 SE CHARLESTON 1900   56 68  320/ 19/ 23 1018.3    5/ 5   2/10

$$


USA.gov is the U.S. government's official web portal to all federal, state and local government web resources and services.